Regional Weather Roundup
Issued by NWS

Home | Current Version | Previous Version | Text Only | Print | Product List | Glossary On
Versions: 1 2 3 4 5 6 7 8 9 10 11 12 13 14 15 16 17 18 19 20 21 22 23 24 25 26 27 28 29 30 31 32 33 34 35 36 37 38 39 40 41 42 43 44 45 46 47 48 49 50
424
ASHW40 PHFO 240812
RWRHI

WEATHER ROUNDUP FOR HAWAII
NATIONAL WEATHER SERVICE HONOLULU HI
1000 PM HST THU FEB 23 2017

THIS IS AN AUTOMATED REPORT THAT HAS NOT BEEN QUALITY CONTROLLED.

NOTE..."FAIR" INDICATES FEW OR NO CLOUDS BELOW 12,000 FEET WITH NO
SIGNIFICANT WEATHER AND/OR OBSTRUCTIONS TO VISIBILITY.

* - THESE SITES REPORT LIMITED FIELDS

HIZ001>004-240900-
KAUAI-NIIHAU-

CITY           SKY/WX    TMP DP  RH WIND       PRES   REMARKS
LIHUE APT      PTCLDY    70  58  65 NE17      30.16R
PORT ALLEN*      N/A     70 N/A N/A E14         N/A
POIPU*           N/A     70 N/A N/A NE7G14      N/A
PRINCEVILLE*     N/A     66 N/A N/A SE2         N/A
KOKOLE POINT*  NOT AVBL
MOLOAA DAIRY*    N/A     66  57  72 NE2G9       N/A
WAIMEA HTS*    NOT AVBL
PUU OPAE*      NOT AVBL
PUU LUA*       NOT AVBL
MAKAHA RIDGE*  NOT AVBL
$$

HIZ005>011-240900-
OAHU-

CITY           SKY/WX    TMP DP  RH WIND       PRES   REMARKS
HONOLULU       MOCLDY    71  53  52 NE10G17   30.11S
KALAELOA       MOCLDY    69  55  60 NE5       30.13S
KANEOHE MCB    NOT AVBL
WHEELER FIELD  PTCLDY    66  55  67 VRB5      30.12S
BELLOWS*       NOT AVBL
KAHUKU*        NOT AVBL
WHEELER*       NOT AVBL
WAIANAE HARBOR NOT AVBL
DILLINGHAM*    NOT AVBL
KAHUKU TRN*      N/A     75  63  64 W9G17       N/A
KAWAILOA*        N/A     64  55  72 NE7G15      N/A
KII*             N/A     72  57  60 E13G18      N/A
MAKUA RANGE*     N/A     68  54  60 W7G15       N/A
OAHU FOREST NW NOT AVBL
SCHOFIELD BRK* NOT AVBL
SCHOFIELD S*   NOT AVBL
WAIANAE VLY*   NOT AVBL
KUAOKALA*      NOT AVBL
HONOULIUULI*   NOT AVBL
MOKUOLOE IS*   NOT AVBL
PALEHUA*       NOT AVBL
WAIAWA PHB*    NOT AVBL
$$

HIZ012>013-240900-
MOLOKAI-

CITY           SKY/WX    TMP DP  RH WIND       PRES   REMARKS
MOLOKAI AIRPT  PTCLDY    70  55  59 NE12G18   30.13S
KALAUPAPA      NOT AVBL
MAKAPULAPAI*   NOT AVBL
MOLOKAI 1*     NOT AVBL
PUU ALII*      NOT AVBL
$$

HIZ016-240900-
KAHOOLAWE-

CITY           SKY/WX    TMP DP  RH WIND       PRES   REMARKS
KAHOOLAWE*     NOT AVBL
HAKIOAWA*      NOT AVBL
HONOKANAIA*      N/A     70  54  57 VRB13G25  30.05R
KANELOA*         N/A     68  55  64 N16G26    30.16R
KEALIALALO*    NOT AVBL
LUA MAKIKA*    NOT AVBL
$$

HIZ014>015-240900-
LANAI-

CITY           SKY/WX    TMP DP  RH WIND       PRES   REMARKS
LANAI CITY       N/A     64  50  60 NE15G24   30.14S
LANAI 1*       NOT AVBL
$$

HIZ017>028-240900-
MAUI-

CITY           SKY/WX    TMP DP  RH WIND       PRES   REMARKS
KAHULUI        MOCLDY    68  55  63 E7        30.12S
KAPALUA-W MAUI NOT AVBL
HANA AIRPORT   PTCLDY    72  57  60 NE6       30.16S
HANA*            N/A     72 N/A N/A NE6         N/A
HALEAKALA SUMM   N/A     39 -26   5 NE7         N/A
MAALAEA BAY*   NOT AVBL
HALEAKALA*     NOT AVBL
KAUPO GAP*     NOT AVBL
KULA 1*          N/A     46   9  21 E5          N/A
$$

HIZ023>026-240900-
BIG ISLAND OF HAWAII COAST AND LOWER SLOPES-

CITY           SKY/WX    TMP DP  RH WIND       PRES   REMARKS
KAILUA KONA    PTCLDY    72  60  66 NE3       30.06S
HILO           CLOUDY    68  59  73 CALM      30.12S
HONOKAA*         N/A     63 N/A N/A VRB1        N/A
KAWAIHAE MWT*    N/A     72 N/A N/A SE5         N/A
KAWAIHAE*      NOT AVBL
SOUTH POINT*     N/A     66 N/A N/A VRB13G18    N/A
UPOLU AIRPORT* NOT AVBL
KAMUELA*       MOSUNNY   55  54  94 NE15      30.17S
HAKALAU*         N/A    N/A N/A N/A SW7         N/A
KALOKO-HONOKO* NOT AVBL
PALI 2*          N/A     57  50  77 S17G25      N/A
KEALAKOMO*       N/A     72  57  60 VRB15G25    N/A
KAUPULEHU*     NOT AVBL
KAPAPALA*        N/A     58  55  91 VRB5        N/A
LOWER KAHUKU*  NOT AVBL
PUHE CS*       NOT AVBL
PUHO CS*       NOT AVBL
PTA KEAMUKU*     N/A     48  36  61 CALM        N/A
WAIKOLOA*      NOT AVBL
$$

HIZ027>028-240900-
BIG ISLAND OF HAWAII INTERIOR AND SUMMMITS-

CITY           SKY/WX    TMP DP  RH WIND       PRES   REMARKS
BRADSHAW FIELD CLOUDY    42  17  36 SE5       30.34S
MK VISITOR CEN   N/A     37   5  25 N5          N/A
MAUNA KEA*       N/A     28 -31   6 CALM        N/A
MAUNA LOA*       N/A    N/A N/A N/A MISG        N/A
MAUNA LOA 1*   NOT AVBL
PTA KIPUKA*      N/A    N/A N/A N/A E5          N/A
PTA RANGE 17*    N/A     64  45  48 E6          N/A
PTA WEST*        N/A     70  54  56 SE12        N/A
NENE CABIN*    NOT AVBL
AHUMOA*        NOT AVBL
PTA PORTABLE*  NOT AVBL
PUU MALI*        N/A     48   9  20 S10         N/A
$$

HIC003-240900-
NORTHWEST ISLANDS-

CITY           SKY/WX    TMP DP  RH WIND       PRES   REMARKS
MIDWAY ISLAND  CLOUDY    64  57  77 NE20G28   30.30R
MIDWAY NOS*    NOT AVBL
FRENCH FRIGATE NOT AVBL
$$

PHZ110>124-180-240900-
BUOY REPORTS

STATION/POSITION TIME  TEMP    WIND        PRES    WAVE   SWELL
                       AIR SEA DIR/SP/G            HT/PER HT/DIR
                 (UTC) (F)     (DEG/KT/KT) (MB)    (FT/S) (FT/D)
BUOY 51001       0750   69 72   30/ 14/ 17 1022.9R   6/13   5/330
BUOY 51101       0750   69 72   20/ 16/ 17 1023.2R   6/12   5/320
BUOY 51100       NOT AVBL
BUOY 51002       0750   76 77   70/ 17/ 21 1017.0F   8/ 9   7/ 80
BUOY 51003       0750   75 77   60/ 14/ 17 1019.0R   8/14   7/330
BUOY 51004       0650      77   30/ 19/ 23 1017.4    7/ 8   3/ 50
BARBERS PT BUOY  NOT AVBL
WAIMEA BAY BUOY  0702      74                N/A     6/14   5/330
KAILUA BAY BUOY  0734      75                N/A     6/15   3/350
LANAI BUOY       0745      76                N/A     2/14   2/280
BARBERS PT 2     NOT AVBL
PAUWELA MAUI     0739      75                N/A     8/14   5/340
HILO             0742      76                N/A     7/13   5/330
KANEOHE BAY BUOY 0736      75                N/A     5/13   3/340
HANALEI KAUAI    0752      75                N/A     6/14   3/310
KAHULUI HARBOR   0748   72 74   30/  9/ 11 1020.1S
HONOLULU HARBOR  0748   71 76   40/  5/ 13 1020.2F
KILO NALU        NOT AVBL
HILO HARBOR      0748   70 74  300/  8/ 10 1019.6F
MOKUOLOE         0736   72 74   60/ 12/ 15 1020.3S
NAWILIWILI       0748   71      20/ 11/ 15 1020.8R
WHOTS BUOY       NOT AVBL
BUOY 51028       NOT AVBL
$$

......................KEY........................................
  SKY/WX - SKY CONDITIONS/PRESENT WEATHER
  TMP    - TEMPERATURE IN FAHRENHEIT
  DWPT   - DEWPOINT IN FAHRENHEIT
  RH     - RELATIVE HUMIDITY IN PERCENT
  WIND   - DIRECTION AND SPEED /MPH FOR ISLANDS...KTS FOR BUOYS/
  PRES   - MEAN SEA LEVEL PRESSURE IN INCHES OF HG
  VSB    - VISIBILITY IN MILES
  HX     - HEAT INDEX
  WCI    - WIND CHILL INDEX
  VRB    - VARIABLE WIND DIRECTION
  N/A    - NOT AVAILABLE




USA.gov is the U.S. government's official web portal to all federal, state and local government web resources and services.